Regional Weather Roundup
Issued by NWS

Current Version | Previous Version | Text Only | Print | Product List | Glossary On
Versions: 1 2 3 4 5 6 7 8 9 10 11 12 13 14 15 16 17 18 19 20 21 22 23 24 25 26 27 28 29 30 31 32 33 34 35 36 37 38 39 40 41 42 43 44 45 46 47 48 49 50
000
ASUS45 KBOI 250910
RWRID

IDAHO REGIONAL WEATHER ROUNDUP
NATIONAL WEATHER SERVICE BOISE ID
200 AM MST SAT FEB 25 2017

NOTE: "FAIR" INDICATES FEW OR NO CLOUDS BELOW 12000 FEET
WITH NO SIGNIFICANT WEATHER AND/OR OBSTRUCTIONS TO VISIBILITY

IDZ012-014-251000-
SOUTHWEST IDAHO


CITY           SKY/WX    TMP DP  RH WIND       PRES   REMARKS
BOISE          CLEAR     25  16  68 SE7       30.15S WCI  17
CALDWELL       CLEAR     24  19  81 N5        30.18S WCI  18
MOUNTAIN HOME  CLEAR     22  22  98 E6        30.15S WCI  15
$$

IDZ016-017-251000-
SOUTHCENTRAL IDAHO


CITY           SKY/WX    TMP DP  RH WIND       PRES   REMARKS
BURLEY         MOCLDY    21  10  62 SW8       30.09F WCI  11
JEROME           N/A    N/A N/A N/A MISG      30.11F
TWIN FALLS     CLOUDY    18   5  57 S12       30.10S WCI   5
$$

IDZ019>023-251000-
SOUTHEAST IDAHO


CITY           SKY/WX    TMP DP  RH WIND       PRES   REMARKS
IDAHO FALLS    CLOUDY    12   7  80 SW7       30.07F WCI   1
POCATELLO      CLOUDY     9   4  80 N6        30.09F WCI  -1
REXBURG        CLOUDY    17   9  70 S10       30.05F WCI   5
$$

IDZ006-010-011-018-031-032-251000-
CENTRAL IDAHO MOUNTAINS


CITY           SKY/WX    TMP DP  RH WIND       PRES   REMARKS
MCCALL         CLEAR      9   3  77 CALM      30.03F
HAILEY         MOCLDY    10   5  79 NW9       30.05F WCI  -2
STANLEY          N/A      2  -2  83 S3        30.00R
SALMON         CLOUDY    23  19  86 S5        30.04F WCI  17
CHALLIS        CLOUDY    22  10  60 CALM      30.00F
$$

IDZ002-004-006-007-026-251000-
NORTHERN IDAHO


CITY           SKY/WX    TMP DP  RH WIND       PRES   REMARKS
LEWISTON       CLEAR     27  19  72 S3        30.18F
LOWELL           N/A     27  23  85 CALM      30.24S
COEUR D`ALENE  PTCLDY    23  22  96 SE6       30.13F WCI  16
MULLAN PASS    MOCLDY    12   9  87 W5        29.93F WCI   4
$$



USA.gov is the U.S. government's official web portal to all federal, state and local government web resources and services.